Location: Wharf Road Observatory
(44.7802°N, 65.6070°W)
Time: 01:06:35
(UTC-04:00)

O/OREOS (USA 219) - Visible Passes

Search period start: 27 February 2024 00:00
Search period end: 08 March 2024 00:00
Orbit: 621 x 646 km, 72.0° (Epoch: 22 May)

Date Brightness Start Highest point End Pass type
(mag) Time Alt. Az. Time Alt. Az. Time Alt. Az.
27 Feb ? 06:06:47 10° SSW 06:11:21 82° ESE 06:15:59 10° NNE visible
28 Feb ? 04:51:08 10° SSE 04:54:25 20° E 04:57:43 10° NE visible
28 Feb ? 06:29:03 10° SW 06:33:28 47° WNW 06:37:56 10° NNE visible
29 Feb ? 05:11:55 10° S 05:16:12 42° ESE 05:20:33 10° NE visible
01 Mar ? 05:33:35 10° SSW 05:38:10 89° NW 05:42:48 10° NNE visible
02 Mar ? 04:18:06 12° SSE 04:21:11 22° ESE 04:24:42 10° NE visible
02 Mar ? 05:55:57 10° SW 06:00:18 42° WNW 06:04:43 10° NNE visible
03 Mar ? 04:40:47 26° SSE 04:42:59 46° ESE 04:47:25 10° NE visible
03 Mar ? 06:19:02 10° WSW 06:22:39 22° NW 06:26:17 10° N visible
04 Mar ? 03:25:45 11° ESE 03:26:18 11° E 03:27:37 10° E visible
04 Mar ? 05:03:15 38° SSW 05:04:58 81° WNW 05:09:37 10° NNE visible
05 Mar ? 03:48:03 24° E 03:48:03 24° E 03:51:40 10° NE visible
05 Mar ? 05:25:33 29° WSW 05:27:09 39° WNW 05:31:30 10° N visible
06 Mar ? 04:10:13 50° E 04:10:13 50° E 04:14:16 10° NNE visible
06 Mar ? 05:47:42 17° W 05:49:31 21° NW 05:52:59 10° N visible
07 Mar ? 02:54:49 10° ENE 02:54:49 10° ENE 02:54:59 10° ENE visible
07 Mar ? 04:32:17 65° NNW 04:32:17 65° NNW 04:36:26 10° NNE visible
07 Mar ? 06:10:35 10° WNW 06:12:05 11° NW 06:13:34 10° NNW visible
